Barstow Daggett Airport Daggett US
ICAO: KDAG
IATA: DAG
Category: Medium
Scheduled Services: No

Elevation: 1930 ft
TransAlt. 18000 ft.

Airport Communications:
ASOS:132.175
LOS ANGELES CNTR:132.5
HAWK 86:46.7
RIVERSIDE RDO:122.2
CTAF/UNICOM:123

KDAG Zoom In..

If you have problems with the map follow the link
https://www.worldairports.se/pages/airport.php?
ICAO=KDAG

Runways:

(A) RW 04 length 5123 ft width 100 ft
---- / hdg 35

(B) RW 08 length 6402 ft width 150 ft
---- / hdg 74

(C) RW 22 length 5123 ft width 100 ft
---- / hdg 215

(D) RW 26 length 6402 ft width 150 ft
---- / hdg 254

Location; KDAG
Day. 24 / Time. 07.50 Zulu
* Altimeter: 30.26
* Temperature: 04° c. 39.2°f.
* Wind from: 250° Speed 04 kn.
Dewpoint: -04° c.
Visibility: 10 Statute Miles.
Clouds: Clear (automated report).

KDAG 240750Z AUTO 25004KT 10SM CLR 04/M04 A3026 RMK AO2 SLP244 T00441039 401560000 $


Wind From 250°
Speed 04 kn.

 
 
jpsmedia.com for Web Design worldairports.se 2019   terms of use